Regional Weather Roundup
Issued by NWS Upton, NY

Current Version | Previous Version | Text Only | Print | Product List | Glossary On
Versions: 1 2 3 4 5 6 7 8 9 10 11 12 13 14 15 16 17 18 19 20 21 22 23 24 25 26 27 28 29 30 31 32 33 34 35 36 37 38 39 40 41 42 43 44 45 46 47 48 49 50
000 ASUS41 KOKX 031505 RWROKX REGIONAL WEATHER ROUNDUP NATIONAL WEATHER SERVICE NEW YORK NY 1000 AM EST TUE MAR 03 2015 NOTE: "FAIR" INDICATES FEW OR NO CLOUDS BELOW 12,000 FEET WITH NO SIGNIFICANT WEATHER AND/OR OBSTRUCTIONS TO VISIBILITY. NYZ071-072-176-178-NJZ106-104-031600- NEW YORK CITY METRO AREA CITY SKY/WX TMP DP RH WIND PRES REMARKS CENTRAL PARK CLOUDY 30 10 43 S7 30.43F WCI 23 LAGUARDIA APRT CLOUDY 28 12 51 NE8 30.42F WCI 20 KENNEDY INTL CLOUDY 29 7 39 SE6 30.44F WCI 23 NEWARK/LIBERTY CLOUDY 27 10 49 CALM 30.43F BRNX BOT. GARD N/A N/A N/A N/A SE5 30.45F TETERBORO CLOUDY 28 9 44 CALM 30.42F $$ NYZ177-179-078>081-031600- LONG ISLAND NEW YORK CITY SKY/WX TMP DP RH WIND PRES REMARKS FARMINGDALE PTSUNNY 26 9 48 CALM 30.43F ISLIP CLOUDY 28 8 43 NW5 30.42F WCI 23 SHIRLEY PTSUNNY 27 9 46 W3 30.45F WESTHAMPTON PTSUNNY 28 8 43 N7 30.45F WCI 21 MONTAUK POINT NOT AVBL $$ NYZ052-065-067-031600- HUDSON VALLEY CITY SKY/WX TMP DP RH WIND PRES REMARKS WHITE PLAINS PTSUNNY 25 8 48 SE5 30.39F WCI 19 NEWBURGH CLOUDY 21 10 63 CALM 30.39F MONTGOMERY PTSUNNY 22 7 52 CALM 30.37F POUGHKEEPSIE PTSUNNY 23 9 55 CALM 30.40F ALBANY CLOUDY 20 7 57 S8 30.39F WCI 10 $$ NJZ001-105-106-008-010-013-015-019>022-104-031600- NEW JERSEY CITY SKY/WX TMP DP RH WIND PRES REMARKS NEWARK/LIBERTY CLOUDY 27 10 49 CALM 30.43F TETERBORO CLOUDY 28 9 44 CALM 30.42F CALDWELL CLOUDY 24 9 52 CALM 30.43F MORRISTOWN CLOUDY 25 10 54 CALM 30.43F SOMERVILLE CLOUDY 27 10 49 CALM 30.41F SUSSEX CLOUDY 21 9 59 CALM 30.38F ANDOVER N/A 24 8 50 CALM 30.38F TRENTON CLOUDY 26 9 48 E5 30.42F WCI 20 MILLVILLE PTSUNNY 29 12 49 SE5 30.45R WCI 24 ATLANTIC CITY PTSUNNY 29 13 51 CALM 30.44R WRIGHTSTOWN CLOUDY 27 10 48 CALM 30.41S TOMS RIVER PTSUNNY 28 12 50 CALM 30.44S BELMAR PTSUNNY 28 10 47 CALM 30.43F $$ PAZ047>061-062-071-031600- EASTERN PENNSYLVANIA CITY SKY/WX TMP DP RH WIND PRES REMARKS PHILADELPHIA CLOUDY 29 11 47 CALM 30.46F ALLENTOWN CLOUDY 25 9 50 CALM 30.39F SCRANTON CLOUDY 20 9 62 N3 30.30F $$ CTZ002-004>006-009-010-012-RIZ004-006-007-MAZ004-011-015-031600- SOUTHERN NEW ENGLAND IN CT CITY SKY/WX TMP DP RH WIND PRES REMARKS BRADLEY INTL CLOUDY 23 6 48 SE3 30.41F HARTFORD PTSUNNY 24 6 46 CALM 30.44F DANBURY PTSUNNY 25 5 42 CALM 30.40F WTRBRY/OXFORD MOSUNNY 21 3 45 CALM 30.39F BRIDGEPORT PTSUNNY 26 10 50 NW5 30.45F WCI 20 MERIDEN PTSUNNY 24 7 48 CALM 30.43F NEW HAVEN PTSUNNY 25 9 50 CALM 30.44F CHESTER FAIR 28 7 40 N3 30.42S GROTON MOSUNNY 26 8 46 NE5 30.44S WCI 20 WILLIMANTIC PTSUNNY 24 7 48 CALM 30.42F IN RI CITY SKY/WX TMP DP RH WIND PRES REMARKS PROVIDENCE PTSUNNY 26 3 37 NW5 30.42F WCI 20 BLOCK ISLAND SUNNY 27 10 50 NE5 30.41F WCI 21 WESTERLY MOSUNNY 27 6 41 NW5 30.43F WCI 22 IN MA CITY SKY/WX TMP DP RH WIND PRES REMARKS BOSTON PTSUNNY 25 2 37 W7 30.39F WCI 17 WORCESTER MOSUNNY 22 -1 36 W7 30.33F WCI 13 WESTFIELD PTSUNNY 22 7 52 S3 30.40F PROVINCETOWN SUNNY 25 7 46 NW10 30.40F WCI 15 NANTUCKET SUNNY 27 6 41 NW12 30.41S WCI 17 $$ ANZ330-335-338-340-345-350-353-355-031600- COASTAL MARINE OBSERVATIONS STATION/POSITION TIME SKY/WX TEMP WIND PRES VSBY WAVE AIR SEA DIR/SP/G HT/PER (UTC) (F) (DEG/KT/KT) (MB) (MI) (FT/S) NY HARB ENTRANCE 1500 29 38 100/ 6/ 12 1030.4 1 4S FIRE IS NOT AVBL 20S FIRE ISLAND 1400 37 1032.3 1/ 8 23SW MTP 1500 N/A 2/ 3 HUDSON CANYON NOT AVBL EXECUTION ROCKS NOT AVBL WESTERN LI SOUND NOT AVBL CENTRAL LI SOUND NOT AVBL EASTERN LI SOUND NOT AVBL ROBBINS REEF 1500 220/ 1/ 2 N/A $$ >>>>>>>>>>>>>>>>>>>>>>>>>>>> KEY <<<<<<<<<<<<<<<<<<<<<<<<<<< > < > SKY/WX - SKY CONDITION/PRESENT WEATHER < > TMP - TEMPERATURE IN FAHRENHEIT < > DP - DEWPOINT IN FAHRENHEIT < > RH - RELATIVE HUMIDITY IN PERCENT < > WIND - DIRECTION AND SPEED IN MPH < > PRES - MEAN SEA LEVEL PRESSURE IN INCHES OF HG < > WCI - WIND CHILL INDEX < > VSB - VISIBILITY IN MILES < > HX - HEAT INDEX < > TC - TEMPERATURE IN CELSIUS < > VRB - VARIABLE WIND DIRECTION < > < >>>>>>>>>>>>>>>>>>>>>>>>>>>> KEY <<<<<<<<<<<<<<<<<<<<<<<<<<<

USA.gov is the U.S. government's official web portal to all federal, state and local government web resources and services.